Flag for Norway Weather past 2 weeks in Halden, Norway

Now
59 °F

Cool.


Feels Like: 60 °F
Forecast: 57 / 72 °F
Wind: 3 mph from East

Location: Stromtangen Fyr

Current Time: Jul 2, 2015 at 6:44:09 AM

Latest Report: Jul 2, 2015 at 5:00 AM


Visibility: N/A

Pressure: 30.33 "Hg

Humidity: 88%

Dew point: 56 °F

Location of HaldenLocation

Historic Weather in Halden — Graph

°F

Halden temperature yesterday

Maximum temperature yesterday: 63 °F (at 8:00 PM)
Minimum temperature yesterday: 60 °F (at 4:00 AM)
Average temperature yesterday: 62 °F

Past Weeks' High & Low Weather Summary

 TemperatureHumidityPressure
High70 °F (Jun 30, 4:00 PM)100% (Jun 29, 2:00 PM)30.33 "Hg (Jun 29, 2:00 PM)
Low50 °F (Jun 19, 4:00 AM)52% (Jun 19, 1:00 PM)29.59 "Hg (Jun 18, 7:00 AM)
Average59 °F83%29.88 "Hg
* Reported Jun 17 6:00 AM — Jul 2 5:00 AM, Halden, Weather by CustomWeather, © 2015

Note: Actual official high and low records may vary slightly from our data, if they occured in-between our weather recording intervals... More about our weather records

Advertising

Halden weather history for previous 24 hours

 ConditionsComfort  
Time TempWeatherWind HumidityBarometerVisibility
5:00 AM
Thu, Jul 2
59 °FCool.3 mph88%30.33 "HgN/A
4:00 AM59 °FCool.2 mph89%30.33 "HgN/A
3:00 AM61 °FCool.2 mph82%30.32 "HgN/A
2:00 AM61 °FCool.2 mph82%30.31 "HgN/A
1:00 AM63 °FMild.5 mph76%30.31 "HgN/A
12:00 AM63 °FMild.6 mph75%30.30 "HgN/A
11:00 PM
Wed, Jul 1
63 °FMild.6 mph80%30.30 "HgN/A
10:00 PM63 °FMild.7 mph79%30.28 "HgN/A
9:00 PM63 °FMild.7 mph81%30.27 "HgN/A
8:00 PM63 °FMild.7 mph77%30.27 "HgN/A
7:00 PM63 °FMild.7 mph87%30.27 "HgN/A
6:00 PM63 °FMild.7 mph89%30.27 "HgN/A
5:00 PM62 °FMild.9 mph99%30.27 "HgN/A
4:00 PM63 °FMild.9 mph94%30.27 "HgN/A
3:00 PM63 °FMild.9 mph96%30.26 "HgN/A
2:00 PM62 °FCool.9 mph98%30.26 "HgN/A
1:00 PM62 °FCool.9 mph93%30.26 "HgN/A
12:00 PM62 °FMild.7 mph90%30.26 "HgN/A
11:00 AM62 °FMild.7 mph98%30.25 "HgN/A
10:00 AM62 °FCool.7 mph96%30.24 "HgN/A
9:00 AM61 °FCool.7 mph98%30.24 "HgN/A
8:00 AM61 °FCool.6 mph99%30.23 "HgN/A
7:00 AM60 °FCool.6 mphN/A30.22 "HgN/A
6:00 AM60 °FCool.8 mph91%30.20 "HgN/A
Weather by CustomWeather, © 2015

See weather overviewHow to use our weather pages